Time,TemperatureF,DewpointF,PressureIn,WindDirection,WindDirectionDegrees,WindSpeedMPH,WindSpeedGustMPH,Humidity,HourlyPrecipIn,Conditions,Clouds,dailyrainin,SoftwareType,DateUTC
2013-04-14 00:00:00,62.4,54.8,28.50,SW,235,0.0,20.8,76,0.00,,OVC200,0.00,VWS V14.01,2013-04-14 05:00:00,
2013-04-14 00:15:00,62.4,54.8,28.50,West,275,0.0,23.5,76,0.00,,OVC100,0.00,VWS V14.01,2013-04-14 05:15:00,
2013-04-14 00:30:00,62.4,54.8,28.53,SW,232,0.0,10.7,76,0.00,,OVC100,0.00,VWS V14.01,2013-04-14 05:30:00,
2013-04-14 00:45:00,62.4,54.8,28.53,South,184,0.0,14.1,76,0.00,,OVC100,0.00,VWS V14.01,2013-04-14 05:45:00,
2013-04-14 01:15:00,62.4,54.8,28.50,ENE,59,0.0,14.1,76,0.00,,OVC100,0.00,VWS V14.01,2013-04-14 06:15:00,
2013-04-14 01:30:00,62.4,54.8,28.50,East,100,0.0,12.1,76,0.00,,OVC100,0.00,VWS V14.01,2013-04-14 06:30:00,
2013-04-14 01:45:00,62.4,54.8,28.50,East,96,14.1,14.1,76,0.00,,OVC100,0.00,VWS V14.01,2013-04-14 06:45:00,
2013-04-14 02:00:00,62.4,54.8,28.47,NE,48,0.0,16.8,76,0.00,,OVC100,0.00,VWS V14.01,2013-04-14 07:00:00,
2013-04-14 02:15:00,62.4,54.8,28.50,East,99,13.4,16.8,76,0.00,,OVC100,0.00,VWS V14.01,2013-04-14 07:15:00,
2013-04-14 02:30:00,62.4,54.8,28.47,ESE,103,8.1,16.8,76,0.00,,OVC100,0.00,VWS V14.01,2013-04-14 07:30:00,
2013-04-14 02:45:00,62.4,54.8,28.47,ESE,104,18.1,19.5,76,0.00,,OVC100,0.00,VWS V14.01,2013-04-14 07:45:00,
2013-04-14 03:00:00,62.4,54.8,28.44,WSW,246,12.1,20.8,76,0.00,,OVC100,0.00,VWS V14.01,2013-04-14 08:00:00,
2013-04-14 03:15:00,62.4,54.8,28.44,East,81,13.4,15.4,76,0.00,,-RA,0.00,VWS V14.01,2013-04-14 08:15:00,
2013-04-14 03:30:00,62.4,54.8,28.41,SE,133,13.4,24.8,76,0.00,,-RA,0.00,VWS V14.01,2013-04-14 08:30:00,
2013-04-14 03:45:00,62.4,54.8,28.38,SSE,158,0.0,13.4,76,0.00,,-RA,0.00,VWS V14.01,2013-04-14 08:45:00,
2013-04-14 04:00:00,62.4,54.8,28.35,NE,44,0.0,0.0,76,0.00,,-RA,0.00,VWS V14.01,2013-04-14 09:00:00,
2013-04-14 04:15:00,62.4,54.8,28.35,NE,46,0.0,0.0,76,0.00,,BKN110,0.00,VWS V14.01,2013-04-14 09:15:00,
2013-04-14 04:30:00,62.4,54.8,28.35,NNE,27,0.0,0.0,76,0.00,,BKN110,0.00,VWS V14.01,2013-04-14 09:30:00,
2013-04-14 04:45:00,62.4,54.8,28.35,SW,222,0.0,0.0,76,0.00,,BKN110,0.00,VWS V14.01,2013-04-14 09:45:00,
2013-04-14 05:00:00,62.4,54.8,28.35,SW,228,0.0,0.0,76,0.00,,BKN110,0.00,VWS V14.01,2013-04-14 10:00:00,
2013-04-14 05:15:00,62.4,54.8,28.35,SSE,166,0.0,0.0,76,0.00,,BKN110,0.00,VWS V14.01,2013-04-14 10:15:00,
2013-04-14 05:30:00,62.4,54.8,28.32,SSE,158,0.0,0.0,76,0.00,,BKN110,0.00,VWS V14.01,2013-04-14 10:30:00,
2013-04-14 05:45:00,62.4,54.8,28.32,WNW,295,0.0,0.0,76,0.00,,BKN110,0.00,VWS V14.01,2013-04-14 10:45:00,
2013-04-14 06:00:00,62.4,54.8,28.32,South,171,0.0,0.0,76,0.00,,BKN110,0.00,VWS V14.01,2013-04-14 11:00:00,
2013-04-14 06:15:00,62.4,54.8,28.29,South,170,0.0,0.0,76,0.00,,,0.00,VWS V14.01,2013-04-14 11:15:00,
2013-04-14 06:30:00,62.4,54.8,28.29,SSE,166,0.0,0.0,76,0.00,,,0.00,VWS V14.01,2013-04-14 11:30:00,
2013-04-14 06:45:00,62.4,54.8,28.29,South,191,0.0,0.0,76,0.00,,,0.00,VWS V14.01,2013-04-14 11:45:00,
2013-04-14 07:00:00,62.4,54.8,28.29,SSW,206,0.0,0.0,76,0.00,,,0.00,VWS V14.01,2013-04-14 12:00:00,
2013-04-14 07:15:00,62.4,54.8,28.29,SW,224,0.0,0.0,76,0.00,,BKN250,0.00,VWS V14.01,2013-04-14 12:15:00,
2013-04-14 07:30:00,62.4,54.8,28.26,SE,141,0.0,0.0,76,0.00,,BKN250,0.00,VWS V14.01,2013-04-14 12:30:00,
2013-04-14 07:45:00,62.4,54.8,28.26,SSW,195,0.0,8.1,76,0.00,,BKN250,0.00,VWS V14.01,2013-04-14 12:45:00,
2013-04-14 08:00:00,62.4,54.8,28.26,SW,231,0.0,0.0,76,0.00,,BKN250,0.00,VWS V14.01,2013-04-14 13:00:00,
2013-04-14 08:15:00,62.4,54.8,28.23,SSW,207,9.4,14.1,76,0.00,,BKN250,0.00,VWS V14.01,2013-04-14 13:15:00,
2013-04-14 08:30:00,62.4,54.8,28.23,South,181,10.7,20.8,76,0.00,,BKN250,0.00,VWS V14.01,2013-04-14 13:30:00,
2013-04-14 08:45:00,62.4,54.8,28.23,West,260,9.4,15.4,76,0.00,,BKN250,0.00,VWS V14.01,2013-04-14 13:45:00,
2013-04-14 09:00:00,62.4,54.8,28.20,SSW,211,10.7,15.4,76,0.00,,BKN250,0.00,VWS V14.01,2013-04-14 14:00:00,
2013-04-14 09:15:00,62.4,54.8,28.20,WSW,249,10.7,13.4,76,0.00,,OVC250,0.00,VWS V14.01,2013-04-14 14:15:00,
2013-04-14 09:30:00,62.4,54.8,28.20,SSW,202,9.4,15.4,76,0.00,,OVC250,0.00,VWS V14.01,2013-04-14 14:30:00,
2013-04-14 09:45:00,62.4,54.8,28.20,SW,232,0.0,16.8,76,0.00,,OVC250,0.00,VWS V14.01,2013-04-14 14:45:00,
2013-04-14 10:00:00,62.4,54.8,28.20,SW,235,10.7,16.8,76,0.00,,OVC250,0.00,VWS V14.01,2013-04-14 15:00:00,
2013-04-14 10:15:00,62.4,54.8,28.20,SW,232,18.1,18.1,76,0.00,,OVC250,0.00,VWS V14.01,2013-04-14 15:15:00,
2013-04-14 10:30:00,62.4,54.8,28.17,SW,234,13.4,18.1,76,0.00,,OVC250,0.00,VWS V14.01,2013-04-14 15:30:00,
2013-04-14 10:45:00,62.4,54.8,28.20,WSW,237,10.7,24.8,76,0.00,,OVC250,0.00,VWS V14.01,2013-04-14 15:45:00,
2013-04-14 11:00:00,62.4,54.8,28.20,WSW,237,8.1,16.8,76,0.00,,OVC250,0.00,VWS V14.01,2013-04-14 16:00:00,
2013-04-14 11:15:00,62.4,54.8,28.20,SW,234,0.0,12.1,76,0.00,,OVC250,0.00,VWS V14.01,2013-04-14 16:15:00,
2013-04-14 11:30:00,62.4,54.8,28.20,SW,223,0.0,8.1,76,0.00,,OVC250,0.00,VWS V14.01,2013-04-14 16:30:00,
2013-04-14 11:45:00,62.4,54.8,28.20,SSW,208,0.0,0.0,76,0.00,,OVC250,0.00,VWS V14.01,2013-04-14 16:45:00,
2013-04-14 12:00:00,62.4,54.8,28.17,SSW,213,0.0,8.1,76,0.00,,OVC250,0.00,VWS V14.01,2013-04-14 17:00:00,
2013-04-14 12:15:00,62.4,54.8,28.20,SW,233,0.0,9.4,76,0.00,,OVC250,0.00,VWS V14.01,2013-04-14 17:15:00,
2013-04-14 12:30:00,62.4,54.8,28.20,West,262,0.0,9.4,76,0.00,,OVC250,0.00,VWS V14.01,2013-04-14 17:30:00,
2013-04-14 12:45:00,62.4,54.8,28.20,SSW,213,0.0,8.1,76,0.00,,OVC250,0.00,VWS V14.01,2013-04-14 17:45:00,
2013-04-14 13:00:00,62.4,54.8,28.20,WSW,242,0.0,8.1,76,0.00,,OVC250,0.00,VWS V14.01,2013-04-14 18:00:00,
2013-04-14 13:15:00,62.4,54.8,28.20,West,272,0.0,0.0,76,0.00,,OVC250,0.00,VWS V14.01,2013-04-14 18:15:00,
2013-04-14 13:30:00,62.4,54.8,28.20,WSW,241,0.0,8.1,76,0.00,,OVC250,0.00,VWS V14.01,2013-04-14 18:30:00,
2013-04-14 13:45:00,62.4,54.8,28.23,SW,231,0.0,8.1,76,0.00,,OVC250,0.00,VWS V14.01,2013-04-14 18:45:00,
2013-04-14 14:00:00,62.4,54.8,28.26,WNW,296,0.0,0.0,76,0.00,,OVC250,0.00,VWS V14.01,2013-04-14 19:00:00,
2013-04-14 14:15:00,62.4,54.8,28.26,SW,233,0.0,8.1,76,0.00,,OVC250,0.00,VWS V14.01,2013-04-14 19:15:00,
2013-04-14 14:30:00,62.4,54.8,28.26,WSW,237,0.0,0.0,76,0.00,,OVC250,0.00,VWS V14.01,2013-04-14 19:30:00,
2013-04-14 14:45:00,62.4,54.8,28.29,NW,307,0.0,0.0,76,0.00,,OVC250,0.00,VWS V14.01,2013-04-14 19:45:00,
2013-04-14 15:00:00,62.4,54.8,28.29,SSW,208,0.0,0.0,76,0.00,,OVC250,0.00,VWS V14.01,2013-04-14 20:00:00,
2013-04-14 15:15:00,62.4,54.8,28.29,SW,230,0.0,0.0,76,0.00,,OVC095,0.00,VWS V14.01,2013-04-14 20:15:00,
2013-04-14 15:30:00,62.4,54.8,28.32,WSW,250,0.0,0.0,76,0.00,,OVC095,0.00,VWS V14.01,2013-04-14 20:30:00,
2013-04-14 15:45:00,62.4,54.8,28.32,West,269,0.0,0.0,76,0.00,,OVC095,0.00,VWS V14.01,2013-04-14 20:45:00,
2013-04-14 16:00:00,62.4,54.8,28.32,NNW,336,0.0,0.0,76,0.00,,OVC095,0.00,VWS V14.01,2013-04-14 21:00:00,
2013-04-14 16:15:00,62.4,54.8,28.32,West,266,0.0,0.0,76,0.00,,OVC250,0.00,VWS V14.01,2013-04-14 21:15:00,
2013-04-14 16:30:00,62.4,54.8,28.32,SW,236,0.0,0.0,76,0.00,,OVC250,0.00,VWS V14.01,2013-04-14 21:30:00,
2013-04-14 16:45:00,62.4,54.8,28.32,North,353,0.0,9.4,76,0.00,,OVC250,0.00,VWS V14.01,2013-04-14 21:45:00,
2013-04-14 17:00:00,62.4,54.8,28.32,SW,228,0.0,0.0,76,0.00,,OVC250,0.00,VWS V14.01,2013-04-14 22:00:00,
2013-04-14 17:15:00,62.4,54.8,28.32,NW,317,0.0,0.0,76,0.00,,BKN250,0.00,VWS V14.01,2013-04-14 22:15:00,
2013-04-14 17:30:00,62.4,54.8,28.35,South,177,0.0,0.0,76,0.00,,BKN250,0.00,VWS V14.01,2013-04-14 22:30:00,
2013-04-14 18:00:00,62.4,54.8,28.35,SW,234,0.0,0.0,76,0.00,,BKN250,0.00,VWS V14.01,2013-04-14 23:00:00,
2013-04-14 18:15:00,62.4,54.8,28.38,SW,229,0.0,0.0,76,0.00,,BKN250,0.00,VWS V14.01,2013-04-14 23:15:00,
2013-04-14 18:30:00,62.4,54.8,28.38,SW,222,0.0,0.0,76,0.00,,BKN250,0.00,VWS V14.01,2013-04-14 23:30:00,
2013-04-14 18:45:00,62.4,54.8,28.38,SW,224,0.0,0.0,76,0.00,,BKN250,0.00,VWS V14.01,2013-04-14 23:45:00,
2013-04-14 19:00:00,62.4,54.8,28.38,SW,227,0.0,0.0,76,0.00,,BKN250,0.00,VWS V14.01,2013-04-15 00:00:00,
2013-04-14 19:30:00,62.4,54.8,28.41,North,353,0.0,0.0,76,0.00,,BKN250,0.00,VWS V14.01,2013-04-15 00:30:00,
2013-04-14 19:45:00,62.4,54.8,28.41,SW,223,0.0,0.0,76,0.00,,BKN250,0.00,VWS V14.01,2013-04-15 00:45:00,
2013-04-14 20:00:00,62.4,54.8,28.41,SE,126,0.0,0.0,76,0.00,,BKN250,0.00,VWS V14.01,2013-04-15 01:00:00,
2013-04-14 20:15:00,62.4,54.8,28.44,North,353,0.0,8.1,76,0.00,,BKN250,0.00,VWS V14.01,2013-04-15 01:15:00,
2013-04-14 20:30:00,62.4,54.8,28.44,North,353,0.0,0.0,76,0.00,,BKN250,0.00,VWS V14.01,2013-04-15 01:30:00,
2013-04-14 20:45:00,62.4,54.8,28.47,North,353,0.0,0.0,76,0.00,,BKN250,0.00,VWS V14.01,2013-04-15 01:45:00,
2013-04-14 21:00:00,62.4,54.8,28.47,North,353,0.0,0.0,76,0.00,,BKN250,0.00,VWS V14.01,2013-04-15 02:00:00,
2013-04-14 21:15:00,62.4,54.8,28.47,North,349,0.0,0.0,76,0.00,,BKN250,0.00,VWS V14.01,2013-04-15 02:15:00,
2013-04-14 21:30:00,62.4,54.8,28.47,NNW,335,0.0,0.0,76,0.00,,BKN250,0.00,VWS V14.01,2013-04-15 02:30:00,
2013-04-14 21:45:00,62.4,54.8,28.47,West,261,0.0,0.0,76,0.00,,BKN250,0.00,VWS V14.01,2013-04-15 02:45:00,
2013-04-14 22:00:00,62.4,54.8,28.50,NNW,343,0.0,0.0,76,0.00,,BKN250,0.00,VWS V14.01,2013-04-15 03:00:00,
2013-04-14 22:15:00,62.4,54.8,28.50,NNW,342,0.0,0.0,76,0.00,,SCT250,0.00,VWS V14.01,2013-04-15 03:15:00,
2013-04-14 22:30:00,62.4,54.8,28.50,NNW,339,0.0,0.0,76,0.00,,SCT250,0.00,VWS V14.01,2013-04-15 03:30:00,
2013-04-14 22:45:00,62.4,54.8,28.50,NNW,342,0.0,0.0,76,0.00,,SCT250,0.00,VWS V14.01,2013-04-15 03:45:00,
2013-04-14 23:00:00,62.4,54.8,28.53,NNW,342,0.0,0.0,76,0.00,,SCT250,0.00,VWS V14.01,2013-04-15 04:00:00,
2013-04-14 23:15:00,62.4,54.8,28.53,NW,308,0.0,0.0,76,0.00,,SCT250,0.00,VWS V14.01,2013-04-15 04:15:00,
2013-04-14 23:30:00,62.4,54.8,28.53,NW,304,0.0,0.0,76,0.00,,SCT250,0.00,VWS V14.01,2013-04-15 04:30:00,
2013-04-14 23:45:00,62.4,54.8,28.53,WNW,303,0.0,0.0,76,0.00,,SCT250,0.00,VWS V14.01,2013-04-15 04:45:00,